This is the latest recevied weather packets stored in our database for station/object SP8NFE-1. If no packets are shown the sender has not sent any weather packets the latest 10 day(s).
| Time | Temp. | Humidity | Pressure | Rain* | Wind** | Luminosity | Snow |
|---|---|---|---|---|---|---|---|
| 1778004310 | 15.56° C | 50% | 0 hPa | 0 mm | - | - | - |
| 1778004010 | 16.11° C | 48% | 0 hPa | 0 mm | - | - | - |
| 1778003710 | 16.67° C | 47% | 0 hPa | 0 mm | - | - | - |
| 1778003211 | 17.22° C | 44% | 0 hPa | 0 mm | - | - | - |
| 1778002810 | 17.78° C | 43% | 0 hPa | 0 mm | - | - | - |
| 1778002510 | 18.33° C | 41% | 0 hPa | 0 mm | - | - | - |
| 1778002210 | 18.89° C | 40% | 0 hPa | 0 mm | - | - | - |
| 1778001910 | 19.44° C | 38% | 0 hPa | 0 mm | - | - | - |
| 1778001610 | 20° C | 37% | 0 hPa | 0 mm | - | - | - |
| 1778001310 | 20° C | 34% | 0 hPa | 0 mm | - | - | - |
| 1778001010 | 20.56° C | 32% | 0 hPa | 0 mm | - | - | - |
| 1778000710 | 21.11° C | 31% | 0 hPa | 0 mm | - | - | - |
| 1778000410 | 21.67° C | 29% | 0 hPa | 0 mm | - | - | - |
| 1778000110 | 22.22° C | 28% | 0 hPa | 0 mm | - | - | - |
| 1777999510 | 22.78° C | 27% | 0 hPa | 0 mm | - | - | - |
| 1777999210 | 23.33° C | 25% | 0 hPa | 0 mm | - | - | - |
| 1777998910 | 23.33° C | 23% | 0 hPa | 0 mm | - | - | - |
| 1777998610 | 23.89° C | 23% | 0 hPa | 0 mm | - | - | - |
| 1777998310 | 23.89° C | 21% | 0 hPa | 0 mm | - | - | - |
| 1777998010 | 23.89° C | 21% | 0 hPa | 0 mm | - | - | - |
| 1777997710 | 23.89° C | 21% | 0 hPa | 0 mm | - | - | - |
| 1777997410 | 23.89° C | 23% | 0 hPa | 0 mm | - | - | - |
| 1777997110 | 24.44° C | 21% | 0 hPa | 0 mm | - | - | - |
| 1777996811 | 24.44° C | 22% | 0 hPa | 0 mm | - | - | - |
| 1777996510 | 25° C | 21% | 0 hPa | 0 mm | - | - | - |
* Rain latest hour (hover to see other rain measurements)
** Current wind speed in m/s (hover to see current wind gust speed)